Regional Weather Roundup
Issued by NWS

Home | Current Version | Previous Version | Graphics & Text | Print | Product List | Glossary On
Versions: 1 2 3 4 5 6 7 8 9 10 11 12 13 14 15 16 17 18 19 20 21 22 23 24 25 26 27 28
000
ASUS45 KSLC 041410
RWRUT

UTAH REGIONAL WEATHER ROUNDUP
NATIONAL WEATHER SERVICE SALT LAKE CITY UT
700 AM MST SUN DEC 04 2016

UTZ001>011-023>025-041500-

NORTHERN UTAH

CITY           SKY/WX    TMP DP  RH WIND       PRES   REMARKS
BRIGHAM CITY     N/A     32  20  62 CALM      30.18F
HILL AFB       PTCLDY    24  16  73 SE9       30.17R WCI  14
LOGAN          MOCLDY   N/A N/A N/A CALM      30.16S
OGDEN          PTCLDY    24  17  74 S10       30.17S WCI  14
SALT LAKE CITY PTCLDY    27  19  72 SE12      30.18S WCI  17
TOOELE VALLEY  PTCLDY    27  19  74 S8        30.17F WCI  18
WENDOVER       PTCLDY    21  14  73 N3        30.16S
HEBER CITY     CLOUDY    12  10  92 CALM      30.19S FOG
WEST JORDAN    PTCLDY    27  22  82 S14       30.18S WCI  15

$$

UTZ011>015-024>027-041500-

CENTRAL/NORTHEAST UTAH

CITY           SKY/WX    TMP DP  RH WIND       PRES   REMARKS
PROVO AIRPORT  CLEAR     19  14  79 S5        30.24R WCI  13
MOAB/CANYONLAN CLEAR     21  14  74 SE5       30.21R WCI  15
DELTA          MOCLDY    16  14  93 CALM      30.21S
PRICE          CLEAR     15  11  83 CALM      30.16R
RICHFIELD      CLEAR     14  10  85 SE1       30.23F
ROOSEVELT      CLOUDY    14  10  85 W3        30.22R
VERNAL         CLOUDY    15   9  76 CALM      30.20R

$$

UTZ013>016-019>022-027-041500-

SOUTHERN UTAH

CITY           SKY/WX    TMP DP  RH WIND       PRES   REMARKS
BRYCE CANYON   NOT AVBL
CEDAR CITY     PTCLDY    18  11  74 E5        30.17F WCI  11
MILFORD        PTCLDY    14  10  84 SW9       30.18F WCI   2
ST GEORGE      MOSUNNY   28  12  50 S5        30.24R WCI  23
HANKSVILLE     PTCLDY    16  12  86 CALM      30.25R
KANAB          CLEAR     18  14  86 CALM      30.24R
BLANDING       CLEAR     25  12  56 CALM      30.25R

$$

REGIONAL REPORTS     COLORADO/ARIZONA

CITY           SKY/WX    TMP DP  RH WIND       PRES   REMARKS
CRAIG, CO      CLOUDY     4   0  83 SW3       30.19R
GRAND JUNCTION CLOUDY    20  15  81 E7        30.22R WCI  11
RIFLE, CO      CLOUDY    12   7  80 S3        30.25R
MONTROSE, CO   CLOUDY    15   8  73 SE10      30.25F WCI   2
CORTEZ, CO     CLOUDY    13   9  84 E5        30.19R WCI   5
COLORADO CITY    N/A     19  16  86 CALM      30.22R
PAGE, AZ       PTCLDY    28  11  48 CALM      30.21R HAZE
GRAND CANYON   PTCLDY     9   6  88 CALM      30.19R
KINGMAN, AZ    CLEAR     33  10  38 E9        30.16S WCI  25
FLAGSTAFF, AZ  CLEAR     24   6  46 N3        30.17R

$$

REGIONAL REPORTS    NEVADA/IDAHO/WYOMING

CITY           SKY/WX    TMP DP  RH WIND       PRES   REMARKS
LAS VEGAS, NV  CLEAR     39  14  36 CALM      30.17R
ELY, NY        PTCLDY    13   5  70 S16       30.18R WCI  -3
ELKO, NV       CLOUDY    21  15  78 CALM      30.14F
POCATELLO, ID  CLOUDY    35  19  52 S17G29    30.05S WCI  25
BURLEY, ID     CLOUDY    35  19  52 SW14      30.05F WCI  26
FORT BRIDGER,    N/A     24  15  69 W15G22    30.09F WCI  11
EVANSTON, WY   CLOUDY    20  12  71 SW17      30.08F WCI   5
ROCK SPRINGS,  CLOUDY    23  14  68 SW8       30.07R WCI  14

$$




USA.gov is the U.S. government's official web portal to all federal, state and local government web resources and services.